Weather History for Marysville, OH

Change the Weather History Date:

Tuesday, July 30, 2013

  Actual Average (KDLZ) Record (KDLZ)
Temperature  
Mean Temperature 64 °F -  
Max Temperature 76 °F 81 °F 98 °F (1940)
Min Temperature 51 °F 59 °F 49 °F (1956)
Degree Days  
Heating Degree Days 2    
Growing Degree Days 14 (Base 50)    
Moisture  
Dew Point 56 °F    
Average Humidity 75    
Maximum Humidity 95    
Minimum Humidity 45    
Precipitation  
Precipitation 0.00 in - - ()
Sea Level Pressure  
Sea Level Pressure 30.21 in    
Wind  
Wind Speed 1 mph (SW)    
Max Wind Speed 6 mph    
Max Gust Speed -    
Visibility 8 miles    
Events      
Averages and records for this station are not official NWS values.
T = Trace of Precipitation, MM = Missing Value Source: NWS Daily Summary

Daily Weather History Graph

Daily Weather History Graph

Search for Another Location

Airport:

Trip Planner

Search our weather history database for the weather conditions in past years. The results will help you decide how hot, cold, wet, or windy it might be!

Date:

Astronomy

Jul. 30, 2013 Rise Set
Actual Time 6:29 AM EDT 8:49 PM EDT
Civil Twilight 5:59 AM EDT 9:19 PM EDT
Nautical Twilight 5:21 AM EDT 9:57 PM EDT
Astronomical Twilight 4:39 AM EDT 10:39 PM EDT
Moon 12:47 AM EDT (7/30) 3:08 PM EDT (7/30)
Length of Visible Light 15h 20m
Length of Day
14h 19m
Last Quarter, 41% of the Moon is Illuminated
Jul 30
Last Quarter
Aug 6
New
Aug 14
First Quarter
Aug 20
Full
Aug 28
Last Quarter

Hourly Weather History & Observations

Time (EDT) Temp. Dew Point Humidity Pressure Visibility Wind Dir Wind Speed Gust Speed Precip Events Conditions
12:13 AM 54.1 °F 51.8 °F 92% 30.21 in 10.0 mi Calm Calm - N/A   Clear
12:34 AM 55.2 °F 53.2 °F 93% 30.21 in 10.0 mi Calm Calm - N/A   Clear
12:53 AM 54.7 °F 52.9 °F 94% 30.22 in 10.0 mi Calm Calm - N/A   Clear
1:13 AM 54.3 °F 52.5 °F 94% 30.22 in 10.0 mi Calm Calm - N/A   Clear
1:34 AM 54.9 °F 53.1 °F 94% 30.22 in 7.0 mi Calm Calm - N/A   Clear
1:53 AM 54.9 °F 53.1 °F 94% 30.22 in 7.0 mi Calm Calm - N/A   Clear
2:13 AM 54.3 °F 52.5 °F 94% 30.22 in 1.8 mi Calm Calm - N/A   Unknown
2:34 AM 54.5 °F 52.9 °F 94% 30.22 in 3.0 mi Calm Calm - N/A   Clear
2:53 AM 54.3 °F 52.5 °F 94% 30.22 in 5.0 mi Calm Calm - N/A   Clear
3:13 AM 52.0 °F 50.5 °F 95% 30.22 in 1.2 mi Calm Calm - N/A   Unknown
3:34 AM 52.9 °F 51.3 °F 94% 30.22 in 0.8 mi Calm Calm - N/A   Unknown
3:53 AM 53.8 °F 52.2 °F 94% 30.22 in 0.5 mi Calm Calm - N/A   Unknown
4:13 AM 52.2 °F 50.5 °F 94% 30.22 in 5.0 mi Calm Calm - N/A   Clear
4:34 AM 51.8 °F 50.0 °F 94% 30.22 in 2.0 mi Calm Calm - N/A   Clear
4:53 AM 51.1 °F 49.5 °F 94% 30.22 in 0.2 mi Calm Calm - N/A   Unknown
5:14 AM 51.3 °F 49.8 °F 95% 30.23 in 0.5 mi Calm Calm - N/A   Unknown
5:34 AM 53.4 °F 51.8 °F 94% 30.22 in 0.8 mi Calm Calm - N/A   Unknown
5:53 AM 51.1 °F 49.6 °F 95% 30.22 in 1.0 mi Calm Calm - N/A   Unknown
6:14 AM 51.4 °F 50.0 °F 95% 30.23 in 1.8 mi Calm Calm - N/A   Unknown
6:34 AM 52.9 °F 51.4 °F 95% 30.23 in 4.0 mi Calm Calm - N/A   Clear
6:53 AM 52.0 °F 50.5 °F 95% 30.23 in 1.5 mi Calm Calm - N/A   Unknown
7:14 AM 52.7 °F 51.3 °F 95% 30.24 in 5.0 mi Calm Calm - N/A   Clear
7:34 AM 54.1 °F 52.7 °F 95% 30.24 in 7.0 mi Calm Calm - N/A   Clear
7:53 AM 56.3 °F 54.7 °F 94% 30.24 in 7.0 mi Calm Calm - N/A   Clear
8:14 AM 57.6 °F 56.1 °F 95% 30.25 in 10.0 mi Calm Calm - N/A   Clear
8:34 AM 59.7 °F 58.1 °F 94% 30.26 in 10.0 mi Calm Calm - N/A   Clear
8:53 AM 63.5 °F 58.3 °F 83% 30.26 in 7.0 mi Calm Calm - N/A   Clear
9:14 AM 66.7 °F 58.6 °F 75% 30.26 in 10.0 mi WSW 3.5 mph - N/A   Clear
9:34 AM 67.1 °F 57.7 °F 72% 30.26 in 10.0 mi WSW 3.5 mph - N/A   Clear
9:53 AM 67.5 °F 56.7 °F 68% 30.25 in 10.0 mi Calm Calm - N/A   Clear
10:14 AM 68.4 °F 55.2 °F 63% 30.25 in 10.0 mi Calm Calm - N/A   Clear
10:34 AM 69.8 °F 56.1 °F 62% 30.25 in 10.0 mi SSW 3.5 mph - N/A   Clear
10:53 AM 70.7 °F 56.7 °F 61% 30.24 in 10.0 mi Calm Calm - N/A   Clear
11:14 AM 72.0 °F 56.3 °F 58% 30.24 in 10.0 mi WSW 5.8 mph - N/A   Clear
11:34 AM 72.9 °F 55.6 °F 55% 30.24 in 10.0 mi Calm Calm - N/A   Clear
11:53 AM 73.0 °F 55.2 °F 53% 30.24 in 10.0 mi SW 3.5 mph - N/A   Scattered Clouds
12:14 PM 74.1 °F 55.8 °F 53% 30.23 in 10.0 mi SW 5.8 mph - N/A   Scattered Clouds
12:34 PM 74.5 °F 56.8 °F 54% 30.24 in 10.0 mi SSW 5.8 mph - N/A   Overcast
12:53 PM 73.4 °F 55.0 °F 52% 30.23 in 10.0 mi Calm Calm - N/A   Scattered Clouds
1:14 PM 74.8 °F 56.3 °F 52% 30.23 in 10.0 mi South 4.6 mph - N/A   Clear
1:34 PM 73.0 °F 55.0 °F 53% 30.22 in 10.0 mi Calm Calm - N/A   Clear
1:53 PM 75.9 °F 54.9 °F 48% 30.22 in 10.0 mi Calm Calm - N/A   Clear
2:14 PM 75.7 °F 55.4 °F 49% 30.21 in 10.0 mi SW 3.5 mph - N/A   Scattered Clouds
2:34 PM 75.4 °F 55.8 °F 50% 30.20 in 10.0 mi SW 4.6 mph - N/A   Scattered Clouds
2:53 PM 76.1 °F 53.6 °F 45% 30.20 in 10.0 mi Calm Calm - N/A   Scattered Clouds
3:14 PM 75.9 °F 55.0 °F 48% 30.20 in 10.0 mi West 3.5 mph - N/A   Clear
3:34 PM 75.7 °F 55.8 °F 50% 30.20 in 10.0 mi Calm Calm - N/A   Scattered Clouds
3:53 PM 75.7 °F 54.3 °F 47% 30.19 in 10.0 mi Calm Calm - N/A   Scattered Clouds
4:14 PM 75.2 °F 56.8 °F 53% 30.19 in 10.0 mi WSW 5.8 mph - N/A   Scattered Clouds
4:34 PM 75.2 °F 56.5 °F 52% 30.19 in 10.0 mi South 4.6 mph - N/A   Clear
4:53 PM 74.3 °F 56.5 °F 54% 30.18 in 10.0 mi SSW 3.5 mph - N/A   Clear
5:14 PM 74.5 °F 57.0 °F 54% 30.19 in 10.0 mi SW 4.6 mph - N/A   Clear
5:34 PM 74.3 °F 56.1 °F 53% 30.18 in 10.0 mi SW 5.8 mph - N/A   Clear
5:53 PM 73.8 °F 56.3 °F 54% 30.18 in 10.0 mi SW 4.6 mph - N/A   Clear
6:14 PM 73.4 °F 58.5 °F 59% 30.18 in 10.0 mi SSW 3.5 mph - N/A   Clear
6:34 PM 73.6 °F 58.6 °F 59% 30.18 in 10.0 mi SSW 3.5 mph - N/A   Clear
6:53 PM 72.5 °F 58.3 °F 61% 30.17 in 10.0 mi Calm Calm - N/A   Clear
7:14 PM 71.2 °F 60.3 °F 68% 30.17 in 10.0 mi Calm Calm - N/A   Clear
7:34 PM 70.7 °F 61.2 °F 72% 30.17 in 10.0 mi Calm Calm - N/A   Clear
7:53 PM 69.4 °F 60.8 °F 74% 30.16 in 10.0 mi Calm Calm - N/A   Scattered Clouds
8:14 PM 67.6 °F 61.2 °F 80% 30.16 in 10.0 mi Calm Calm - N/A   Scattered Clouds
8:34 PM 67.1 °F 60.4 °F 79% 30.16 in 10.0 mi Calm Calm - N/A   Clear
8:53 PM 65.5 °F 60.6 °F 84% 30.16 in 10.0 mi Calm Calm - N/A   Clear
9:14 PM 64.6 °F 60.4 °F 86% 30.16 in 7.0 mi Calm Calm - N/A   Clear
9:33 PM 64.4 °F 60.8 °F 88% 30.16 in 7.0 mi Calm Calm - N/A   Mostly Cloudy
9:53 PM 65.1 °F 61.9 °F 89% 30.16 in 10.0 mi Calm Calm - N/A   Overcast
10:14 PM 65.3 °F 61.9 °F 89% 30.16 in 10.0 mi Calm Calm - N/A   Overcast
10:33 PM 65.5 °F 61.7 °F 88% 30.17 in 10.0 mi Calm Calm - N/A   Mostly Cloudy
10:53 PM 66.2 °F 60.8 °F 83% 30.17 in 10.0 mi Calm Calm - N/A   Mostly Cloudy
11:14 PM 65.7 °F 61.0 °F 85% 30.17 in 10.0 mi Calm Calm - N/A   Scattered Clouds
11:33 PM 65.5 °F 59.9 °F 82% 30.16 in 10.0 mi Calm Calm - N/A   Clear
11:53 PM 64.9 °F 61.3 °F 88% 30.16 in 10.0 mi Calm Calm - N/A   Clear